Regional Weather Roundup
Issued by NWS

Home | Current Version | Previous Version | Graphics & Text | Print | Product List | Glossary On
Versions: 1 2 3 4 5 6 7 8 9 10 11 12 13 14 15 16 17 18 19 20 21 22 23 24 25 26 27 28 29 30 31 32 33 34 35 36 37 38 39 40 41 42 43 44 45 46 47 48 49 50
000
ASUS43 KOAX 170410
RWRNE

WEATHER ROUNDUP FOR NEBRASKA
NATIONAL WEATHER SERVICE OMAHA NE
1000 PM CST SAT DEC 16 2017

NOTES: SATELLITE DATA IS BEING USED TO AUGMENT CLOUD COVER ABOVE
       12000 FEET.
       "FAIR" INDICATES FEW OR NO CLOUDS BELOW 12,000 FEET WITH NO
       SIGNIFICANT WEATHER AND/OR OBSTRUCTIONS TO VISIBILITY.


NEZ001>004-019>022-054>056-170500-
NEBRASKA PANHANDLE

CITY           SKY/WX    TMP DP  RH WIND       PRES   REMARKS
SCOTTSBLUFF    CLOUDY    34  27  75 E12       29.99R WCI  25
ALLIANCE       CLOUDY    31  28  89 NE9       29.99R WCI  23
CHADRON        CLOUDY    31  26  82 NE5       30.04S WCI  26
GORDON         CLOUDY    32  28  88 N3        30.02R
KIMBALL        CLOUDY    31  29  93 E14       29.95S WCI  20
SIDNEY         CLOUDY    32  28  85 NE15      29.97R WCI  22
$$

NEZ057>060-069>072-079>082-170500-
SOUTHWEST NEBRASKA

CITY           SKY/WX    TMP DP  RH WIND       PRES   REMARKS
NORTH PLATTE   CLOUDY    38  33  82 NE18      29.96S WCI  28
IMPERIAL       CLOUDY    36  33  89 N16       29.95S WCI  26
LEXINGTON      CLOUDY    35  31  84 NE12      29.95S WCI  27
MCCOOK         CLEAR     32  28  85 NE16      29.93R WCI  21
OGALLALA       CLOUDY    37  32  82 NE16      29.99R WCI  27
$$

NEZ005>010-023>029-035>040-094-170500-
NORTH CENTRAL NEBRASKA

CITY           SKY/WX    TMP DP  RH WIND       PRES   REMARKS
VALENTINE      CLOUDY    37  32  82 NE10      30.04R WCI  30
AINSWORTH      CLOUDY    36  34  91 N7        30.02S WCI  31
BROKEN BOW     CLOUDY    39  33  79 N16G24    29.97S WCI  30
O`NEILL        CLOUDY    35  34  97 N8        30.02R WCI  29
ORD            CLOUDY    37  34  89 N10       29.99R WCI  30
THEDFORD       CLOUDY    37  32  84 NE10      30.01R WCI  29
$$

NEZ041-046>049-061>064-073>077-083>087-170500-
SOUTH CENTRAL NEBRASKA

CITY           SKY/WX    TMP DP  RH WIND       PRES   REMARKS
GRAND ISLAND   CLOUDY    32  31  96 N13       29.96S WCI  22
AURORA         CLOUDY    33  30  90 N13       29.95R WCI  24
HASTINGS       CLOUDY    34  29  82 NE14      29.96R WCI  25
HEBRON         MOCLDY    36  24  61 CALM      29.93R
HOLDREGE       CLOUDY    33  30  90 NE12      29.95R WCI  24
KEARNEY        CLOUDY    32  29  88 N13       29.96R WCI  22
YORK           CLOUDY    32  32 100 N12       29.95S WCI  23
$$

NEZ011>018-030>034-042>045-170500-
NORTHEAST NEBRASKA

CITY           SKY/WX    TMP DP  RH WIND       PRES   REMARKS
NORFOLK        CLEAR     35  30  82 NE9       29.99R WCI  28
ALBION         PTCLDY    35  32  89 N6        30.00R WCI  30
BLAIR          CLOUDY    37  29  72 N8        29.96R WCI  31
COLUMBUS       PTCLDY    34  29  82 N13       29.97S WCI  25
FREMONT        CLOUDY    34  28  77 N5        29.98R WCI  30
TEKAMAH        CLOUDY    31  23  72 N12       30.00R WCI  22
WAYNE          PTCLDY    31  30  96 NE9       30.01R WCI  22
$$

NEZ050>053-065>068-078-088>093-170500-
SOUTHEAST NEBRASKA

CITY           SKY/WX    TMP DP  RH WIND       PRES   REMARKS
LINCOLN        CLOUDY    34  26  72 N12       29.96R WCI  25
OMAHA EPPLEY   CLOUDY    35  24  64 N7        29.97R WCI  29
BEATRICE       CLOUDY    37  24  61 NE5       29.92R WCI  33
FALLS CITY     PTCLDY    40  25  55 S6        29.93R
NEBRASKA CITY  CLOUDY    38  25  59 N3        29.93S
PLATTSMOUTH    CLOUDY    36  26  67 N5        29.94R WCI  32
$$

NEZ044-045-051>053-067-170500-
OMAHA AREA

CITY           SKY/WX    TMP DP  RH WIND       PRES   REMARKS
OMAHA EPPLEY   CLOUDY    35  24  64 N7        29.97R WCI  29
BLAIR          CLOUDY    37  29  72 N8        29.96R WCI  31
FREMONT        CLOUDY    34  28  77 N5        29.98R WCI  30
MILLARD        CLOUDY    42  29  61 NE7       29.97R
OFFUTT AFB     CLOUDY    39  26  58 NE12      29.95R WCI  32
PLATTSMOUTH    CLOUDY    36  26  67 N5        29.94R WCI  32
WAHOO          FAIR      31  26  80 N7        29.97R WCI  25
$$




USA.gov is the U.S. government's official web portal to all federal, state and local government web resources and services.